sat.trackr.live / text

‹ back to catalog

SAUDISAT 3

NORAD 31118 · 2007-012B

PAYLOAD ACTIVE UNKNOWN

§ Identity

Operator
Country
SAUD
Launch date
2007-04-17
Launch site
TYMSC
Launch vehicle
Mass (kg)
RCS (m²)
0.70

Purposes: tech_demo

External: N2YO · Heavens-Above · Gunter

§ Orbital elements

Epoch: 2026-05-25T03:18:29.947104Z

Period
97.87 min
Inclination
98.1445°
Eccentricity
0.0013494
Mean motion
14.71409192 rev/d
Perigee alt
647.1 km
Apogee alt
666.1 km
Semi-major
7,034.7 km
B*
4.3426e-5
RAAN
95.5255°
Arg perigee
304.1833°
Mean anomaly
55.8094°
Rev number
2,435

§ Raw data

SAUDISAT 31 31118U 07012B   26145.13784661  .00000218  00000+0  43426-4 0  99912 31118  98.1445  95.5255 0013494 304.1833  55.8094 14.71409192 24354

JSON: /api/v1/satellites/31118 · /tle

For live sub-satellite position, see the globe view (requires WebGL).

§ Visibility from observer

Set your observer location to see the next 7 days of passes ≥ 10°. The values pass through the URL so the page stays shareable.

No JS? Fill the form by hand. The geolocation button needs JavaScript.